• In Hungary
  • List of Countries
  • For 7 days
  • Water Temperature
  • Satellite Maps
  • Weather Map
  • News
  • Weather Widgets
  • user-avatar
    Login

    Hourly Weather Tulchin

    Today, 21 September, Friday

    Time Temperature Precipitation Wind Pressure Humidity
    00:00 +17°C° 0 mm 0 mps 744 mmHg 51%
    01:00 +16°C° 0 mm 0 mps 744 mmHg 52%
    02:00 +16°C° 0 mm 0 mps 744 mmHg 53%
    03:00 +16°C° 0 mm 0 mps 744 mmHg 53%
    04:00 +16°C° 0 mm 0 mps 744 mmHg 54%
    05:00 +15°C° 0 mm 0 mps 744 mmHg 55%
    06:00 +19°C° 0 mm 1 mps 744 mmHg 53%
    07:00 +20°C° 0 mm 1 mps 745 mmHg 51%
    08:00 +21°C° 0 mm 1 mps 745 mmHg 48%
    09:00 +23°C° 0 mm 1 mps 745 mmHg 44%
    10:00 +25°C° 0 mm 2 mps 745 mmHg 40%
    11:00 +27°C° 0 mm 2 mps 745 mmHg 36%
    12:00 +27°C° 0 mm 2 mps 745 mmHg 34%
    13:00 +28°C° 0 mm 3 mps 744 mmHg 32%
    14:00 +29°C° 0 mm 3 mps 744 mmHg 30%
    15:00 +28°C° 0 mm 3 mps 744 mmHg 34%
    16:00 +27°C° 0 mm 2 mps 744 mmHg 37%
    17:00 +26°C° 0 mm 2 mps 743 mmHg 40%
    18:00 +25°C° 0 mm 2 mps 743 mmHg 42%
    19:00 +23°C° 0 mm 2 mps 743 mmHg 44%
    20:00 +20°C° 0 mm 2 mps 743 mmHg 45%
    21:00 +20°C° 0 mm 2 mps 743 mmHg 46%
    22:00 +20°C° 0 mm 2 mps 742 mmHg 46%
    23:00 +19°C° 0 mm 2 mps 742 mmHg 47%

    Tomorrow, 22 September, Saturday

    Time Temperature Precipitation Wind Pressure Humidity
    00:00 +19°C° 0 mm 2 mps 742 mmHg 48%
    01:00 +18°C° 0 mm 2 mps 742 mmHg 49%
    02:00 +18°C° 0 mm 2 mps 742 mmHg 50%
    03:00 +18°C° 0 mm 2 mps 742 mmHg 51%
    04:00 +17°C° 0 mm 2 mps 742 mmHg 52%
    05:00 +17°C° 0 mm 2 mps 741 mmHg 53%
    06:00 +18°C° 0 mm 3 mps 741 mmHg 53%
    07:00 +19°C° 0 mm 3 mps 742 mmHg 52%
    08:00 +20°C° 0 mm 3 mps 742 mmHg 52%
    09:00 +22°C° 0 mm 4 mps 741 mmHg 47%
    10:00 +25°C° 0 mm 4 mps 741 mmHg 43%
    11:00 +26°C° 0 mm 4 mps 741 mmHg 38%
    12:00 +27°C° 0 mm 4 mps 741 mmHg 37%
    13:00 +28°C° 0 mm 4 mps 741 mmHg 35%
    14:00 +28°C° 0 mm 4 mps 741 mmHg 33%
    15:00 +27°C° 0 mm 4 mps 741 mmHg 38%
    16:00 +26°C° 0 mm 3 mps 740 mmHg 42%
    17:00 +25°C° 0 mm 3 mps 740 mmHg 47%
    18:00 +22°C° 0 mm 4 mps 741 mmHg 55%
    19:00 +20°C° 0 mm 5 mps 741 mmHg 62%
    20:00 +17°C° 0 mm 6 mps 741 mmHg 70%
    21:00 +15°C° 0.4 mm 6 mps 741 mmHg 73%
    22:00 +14°C° 0.4 mm 7 mps 742 mmHg 75%
    23:00 +12°C° 0.4 mm 7 mps 742 mmHg 78%

    Day after tomorrow, 23 September, Sunday

    Time Temperature Precipitation Wind Pressure Humidity
    00:00 +11°C° 0.8 mm 6 mps 743 mmHg 80%
    01:00 +10°C° 0.8 mm 5 mps 743 mmHg 82%
    02:00 +10°C° 0.8 mm 4 mps 743 mmHg 85%
    03:00 +10°C° 0 mm 4 mps 743 mmHg 85%
    04:00 +10°C° 0 mm 3 mps 743 mmHg 86%
    05:00 +9°C° 0 mm 2 mps 743 mmHg 87%
    06:00 +10°C° 0 mm 2 mps 743 mmHg 84%
    07:00 +11°C° 0 mm 3 mps 744 mmHg 81%
    08:00 +11°C° 0 mm 3 mps 744 mmHg 78%
    09:00 +13°C° 0 mm 3 mps 744 mmHg 69%
    10:00 +15°C° 0 mm 4 mps 744 mmHg 59%
    11:00 +18°C° 0 mm 4 mps 744 mmHg 50%
    12:00 +18°C° 0 mm 4 mps 743 mmHg 47%
    13:00 +19°C° 0 mm 4 mps 743 mmHg 44%
    14:00 +19°C° 0 mm 4 mps 743 mmHg 41%
    15:00 +19°C° 0 mm 4 mps 743 mmHg 43%
    16:00 +19°C° 0 mm 3 mps 743 mmHg 46%
    17:00 +18°C° 0 mm 2 mps 743 mmHg 48%
    18:00 +17°C° 0 mm 2 mps 743 mmHg 51%
    19:00 +16°C° 0 mm 1 mps 743 mmHg 53%
    20:00 +15°C° 0 mm 1 mps 743 mmHg 56%
    21:00 +15°C° 0 mm 1 mps 742 mmHg 56%
    22:00 +14°C° 0 mm 2 mps 742 mmHg 56%
    23:00 +13°C° 0 mm 3 mps 742 mmHg 55%

    24 September, Monday

    Time Temperature Precipitation Wind Pressure Humidity
    00:00 +13°C° 0 mm 3 mps 741 mmHg 54%
    01:00 +13°C° 0 mm 3 mps 741 mmHg 53%
    02:00 +13°C° 0 mm 4 mps 740 mmHg 51%
    03:00 +13°C° 0 mm 5 mps 739 mmHg 50%
    04:00 +13°C° 0 mm 6 mps 738 mmHg 49%
    05:00 +12°C° 0 mm 7 mps 736 mmHg 48%
    06:00 +13°C° 0.1 mm 8 mps 736 mmHg 54%
    07:00 +15°C° 0.1 mm 9 mps 735 mmHg 61%
    08:00 +16°C° 0.1 mm 9 mps 734 mmHg 67%
    09:00 +17°C° 0.8 mm 10 mps 734 mmHg 69%
    10:00 +17°C° 0.8 mm 10 mps 733 mmHg 71%
    11:00 +18°C° 0.8 mm 10 mps 733 mmHg 73%
    12:00 +17°C° 0.3 mm 10 mps 733 mmHg 73%
    13:00 +14°C° 0.3 mm 10 mps 734 mmHg 72%
    14:00 +13°C° 0.3 mm 11 mps 734 mmHg 72%
    15:00 +12°C° 0 mm 10 mps 735 mmHg 68%
    16:00 +12°C° 0 mm 10 mps 736 mmHg 64%
    17:00 +12°C° 0 mm 10 mps 737 mmHg 61%
    18:00 +11°C° 0 mm 9 mps 738 mmHg 62%
    19:00 +10°C° 0 mm 8 mps 738 mmHg 64%
    20:00 +9°C° 0 mm 7 mps 739 mmHg 66%
    21:00 +9°C° 0 mm 7 mps 739 mmHg 66%
    22:00 +9°C° 0 mm 7 mps 740 mmHg 65%
    23:00 +8°C° 0 mm 7 mps 740 mmHg 65%

    25 September, Tuesday

    Time Temperature Precipitation Wind Pressure Humidity
    00:00 +8°C° 0 mm 7 mps 740 mmHg 64%
    01:00 +6°C° 0 mm 8 mps 740 mmHg 63%
    02:00 +6°C° 0 mm 8 mps 740 mmHg 62%
    03:00 +6°C° 0 mm 8 mps 741 mmHg 62%
    04:00 +6°C° 0 mm 8 mps 741 mmHg 62%
    05:00 +6°C° 0 mm 9 mps 742 mmHg 62%
    06:00 +6°C° 0 mm 9 mps 742 mmHg 62%
    07:00 +6°C° 0 mm 9 mps 743 mmHg 62%
    08:00 +6°C° 0 mm 9 mps 743 mmHg 62%
    09:00 +7°C° 0 mm 9 mps 744 mmHg 57%
    10:00 +8°C° 0 mm 9 mps 744 mmHg 52%
    11:00 +10°C° 0 mm 9 mps 745 mmHg 47%
    12:00 +11°C° 0.1 mm 9 mps 745 mmHg 46%
    13:00 +11°C° 0.1 mm 9 mps 745 mmHg 45%
    14:00 +12°C° 0.1 mm 9 mps 745 mmHg 43%
    15:00 +11°C° 0 mm 8 mps 745 mmHg 45%
    16:00 +10°C° 0 mm 8 mps 746 mmHg 47%
    17:00 +10°C° 0 mm 7 mps 746 mmHg 49%
    18:00 +9°C° 0 mm 6 mps 746 mmHg 53%
    19:00 +8°C° 0 mm 5 mps 747 mmHg 57%
    20:00 +7°C° 0 mm 4 mps 747 mmHg 61%
    21:00 +6°C° 0 mm 4 mps 747 mmHg 63%
    22:00 +6°C° 0 mm 4 mps 747 mmHg 65%
    23:00 +5°C° 0 mm 3 mps 747 mmHg 68%

    26 September, Wednesday

    Time Temperature Precipitation Wind Pressure Humidity
    00:00 +5°C° 0 mm 3 mps 747 mmHg 69%
    01:00 +4°C° 0 mm 3 mps 747 mmHg 70%
    02:00 +4°C° 0 mm 3 mps 747 mmHg 71%
    03:00 +4°C° 0 mm 3 mps 747 mmHg 71%
    04:00 +4°C° 0 mm 3 mps 747 mmHg 71%
    05:00 +4°C° 0 mm 3 mps 747 mmHg 71%
    06:00 +5°C° 0 mm 4 mps 746 mmHg 67%
    07:00 +6°C° 0 mm 4 mps 746 mmHg 62%
    08:00 +7°C° 0 mm 5 mps 746 mmHg 57%
    09:00 +7°C° 0.2 mm 5 mps 746 mmHg 59%
    10:00 +7°C° 0.2 mm 6 mps 746 mmHg 62%
    11:00 +8°C° 0.2 mm 6 mps 747 mmHg 64%
    12:00 +9°C° 0 mm 5 mps 747 mmHg 61%
    13:00 +9°C° 0 mm 5 mps 747 mmHg 59%
    14:00 +11°C° 0 mm 4 mps 747 mmHg 57%
    15:00 +11°C° 0 mm 4 mps 747 mmHg 57%
    16:00 +11°C° 0 mm 3 mps 747 mmHg 57%
    17:00 +11°C° 0 mm 3 mps 747 mmHg 58%
    18:00 +10°C° 0 mm 3 mps 748 mmHg 63%
    19:00 +9°C° 0 mm 2 mps 748 mmHg 68%
    20:00 +7°C° 0 mm 2 mps 749 mmHg 73%
    21:00 +7°C° 0 mm 2 mps 749 mmHg 77%
    22:00 +6°C° 0 mm 2 mps 750 mmHg 81%
    23:00 +6°C° 0 mm 2 mps 750 mmHg 85%
    Show more